Time,TemperatureF,DewpointF,PressureIn,WindDirection,WindDirectionDegrees,WindSpeedMPH,WindSpeedGustMPH,Humidity,HourlyPrecipIn,Conditions,Clouds,dailyrainin,SoftwareType,DateUTC
2013-02-16 12:53:00,56.5,27.8,30.10,ESE,103,2.0,2.0,33,0.00,,---,0.00,VWS V14.01,2013-02-16 18:53:00,
2013-02-16 12:58:00,56.9,28.1,30.10,ENE,69,1.0,4.0,33,5.11,,---,0.00,VWS V14.01,2013-02-16 18:58:00,
2013-02-16 13:03:00,57.4,25.4,30.10,NW,323,3.0,9.0,29,5.11,,---,0.00,VWS V14.01,2013-02-16 19:03:00,
2013-02-16 13:08:00,57.0,25.9,30.10,NW,315,3.0,9.0,30,0.00,,---,0.00,VWS V14.01,2013-02-16 19:08:00,
2013-02-16 13:13:00,56.9,25.0,30.09,WSW,252,3.0,9.0,29,0.00,,---,0.00,VWS V14.01,2013-02-16 19:13:00,
2013-02-16 13:18:00,56.7,26.4,30.09,ENE,77,6.0,11.0,31,0.00,,---,0.00,VWS V14.01,2013-02-16 19:18:00,
2013-02-16 13:23:00,56.7,24.8,30.09,East,86,4.0,11.0,29,0.00,,---,0.00,VWS V14.01,2013-02-16 19:23:00,
2013-02-16 13:28:00,56.8,24.1,30.09,ENE,65,7.0,11.0,28,0.00,,---,0.00,VWS V14.01,2013-02-16 19:28:00,
2013-02-16 13:33:00,56.6,24.7,30.09,West,266,0.0,11.0,29,0.00,,---,0.00,VWS V14.01,2013-02-16 19:33:00,
2013-02-16 13:38:00,56.8,25.7,30.09,WSW,249,0.0,4.0,30,0.00,,---,0.00,VWS V14.01,2013-02-16 19:38:00,
2013-02-16 13:43:00,57.6,28.0,30.09,WNW,288,1.0,6.0,32,0.00,,---,0.00,VWS V14.01,2013-02-16 19:43:00,
2013-02-16 13:48:00,57.4,23.7,30.08,WNW,297,2.0,7.0,27,0.00,,---,0.00,VWS V14.01,2013-02-16 19:48:00,
2013-02-16 13:53:00,57.5,26.3,30.08,WNW,303,0.0,7.0,30,0.00,,---,0.00,VWS V14.01,2013-02-16 19:53:00,
2013-02-16 13:58:00,57.1,22.6,30.08,NW,319,2.0,8.0,26,0.00,,---,0.00,VWS V14.01,2013-02-16 19:58:00,
2013-02-16 14:03:00,56.6,23.0,30.08,SE,132,1.0,8.0,27,0.00,,---,0.00,VWS V14.01,2013-02-16 20:03:00,
2013-02-16 14:08:00,56.8,25.7,30.08,North,354,3.0,5.0,30,0.00,,---,0.00,VWS V14.01,2013-02-16 20:08:00,
2013-02-16 14:13:00,56.7,24.0,30.08,NNW,333,0.0,5.0,28,0.00,,---,0.00,VWS V14.01,2013-02-16 20:13:00,
2013-02-16 14:18:00,57.0,25.9,30.08,South,183,1.0,8.0,30,0.00,,---,0.00,VWS V14.01,2013-02-16 20:18:00,
2013-02-16 14:23:00,57.0,25.1,30.08,NW,307,5.0,8.0,29,0.00,,---,0.00,VWS V14.01,2013-02-16 20:23:00,
2013-02-16 14:28:00,56.5,24.6,30.08,NNW,338,2.0,9.0,29,0.00,,---,0.00,VWS V14.01,2013-02-16 20:28:00,
2013-02-16 14:33:00,56.7,24.0,30.08,West,273,3.0,9.0,28,0.00,,---,0.00,VWS V14.01,2013-02-16 20:33:00,
2013-02-16 14:38:00,56.2,22.7,30.09,WSW,247,4.0,8.0,27,0.00,,---,0.00,VWS V14.01,2013-02-16 20:38:00,
2013-02-16 14:43:00,56.2,24.4,30.08,ENE,67,0.0,8.0,29,0.00,,---,0.00,VWS V14.01,2013-02-16 20:43:00,
2013-02-16 14:48:00,55.9,23.3,30.08,West,273,0.0,9.0,28,0.00,,---,0.00,VWS V14.01,2013-02-16 20:48:00,
2013-02-16 14:53:00,55.6,23.0,30.08,West,276,1.0,9.0,28,0.00,,---,0.00,VWS V14.01,2013-02-16 20:53:00,
2013-02-16 14:58:00,55.6,23.9,30.08,WNW,288,3.0,9.0,29,0.00,,---,0.00,VWS V14.01,2013-02-16 20:58:00,
2013-02-16 15:03:00,55.6,23.9,30.08,North,10,2.0,9.0,29,0.00,,---,0.00,VWS V14.01,2013-02-16 21:03:00,
2013-02-16 15:08:00,55.2,25.1,30.08,WNW,290,0.0,6.0,31,0.00,,---,0.00,VWS V14.01,2013-02-16 21:08:00,
2013-02-16 15:13:00,55.2,22.7,30.08,ESE,121,1.0,6.0,28,0.00,,---,0.00,VWS V14.01,2013-02-16 21:13:00,
2013-02-16 15:18:00,55.0,24.2,30.08,NW,319,0.0,6.0,30,0.00,,---,0.00,VWS V14.01,2013-02-16 21:18:00,
2013-02-16 15:23:00,54.7,22.3,30.08,West,262,1.0,6.0,28,0.00,,---,0.00,VWS V14.01,2013-02-16 21:23:00,
2013-02-16 15:28:00,54.1,22.6,30.08,NW,317,4.0,10.0,29,0.00,,---,0.00,VWS V14.01,2013-02-16 21:28:00,
2013-02-16 15:33:00,53.6,22.1,30.08,WSW,243,2.0,10.0,29,0.00,,---,0.00,VWS V14.01,2013-02-16 21:33:00,
2013-02-16 15:38:00,53.3,21.0,30.08,WNW,297,0.0,9.0,28,0.00,,---,0.00,VWS V14.01,2013-02-16 21:38:00,
2013-02-16 15:43:00,53.2,22.6,30.09,NW,321,4.0,9.0,30,0.00,,---,0.00,VWS V14.01,2013-02-16 21:43:00,
2013-02-16 15:48:00,52.9,20.7,30.09,West,276,0.0,9.0,28,0.00,,---,0.00,VWS V14.01,2013-02-16 21:48:00,
2013-02-16 15:53:00,52.6,21.3,30.09,WSW,246,0.0,9.0,29,0.00,,---,0.00,VWS V14.01,2013-02-16 21:53:00,
2013-02-16 15:58:00,52.3,21.0,30.09,WNW,298,0.0,9.0,29,0.00,,---,0.00,VWS V14.01,2013-02-16 21:58:00,
2013-02-16 16:03:00,52.4,22.7,30.09,North,5,3.0,9.0,31,0.00,,---,0.00,VWS V14.01,2013-02-16 22:03:00,
2013-02-16 16:08:00,52.3,22.6,30.09,NW,321,0.0,5.0,31,0.00,,---,0.00,VWS V14.01,2013-02-16 22:08:00,
2013-02-16 16:13:00,52.1,22.4,30.09,SSW,203,0.0,7.0,31,0.00,,---,0.00,VWS V14.01,2013-02-16 22:13:00,
2013-02-16 16:18:00,52.1,23.9,30.09,WNW,291,0.0,7.0,33,0.00,,---,0.00,VWS V14.01,2013-02-16 22:18:00,
2013-02-16 16:23:00,52.1,23.2,30.09,North,4,0.0,7.0,32,0.00,,---,0.00,VWS V14.01,2013-02-16 22:23:00,
2013-02-16 16:28:00,51.9,24.4,30.09,West,276,0.0,7.0,34,0.00,,---,0.00,VWS V14.01,2013-02-16 22:28:00,
2013-02-16 16:33:00,51.9,24.4,30.10,NNE,14,0.0,7.0,34,0.00,,---,0.00,VWS V14.01,2013-02-16 22:33:00,
2013-02-16 16:38:00,51.8,23.6,30.10,WNW,288,3.0,5.0,33,0.00,,---,0.00,VWS V14.01,2013-02-16 22:38:00,
2013-02-16 16:43:00,51.2,22.4,30.09,WNW,299,0.0,5.0,32,0.00,,---,0.00,VWS V14.01,2013-02-16 22:43:00,
2013-02-16 16:48:00,50.9,22.8,30.10,NNE,23,2.0,5.0,33,0.00,,---,0.00,VWS V14.01,2013-02-16 22:48:00,
2013-02-16 16:53:00,50.5,24.6,30.10,ESE,117,0.0,5.0,36,0.00,,---,0.00,VWS V14.01,2013-02-16 22:53:00,
2013-02-16 16:58:00,50.3,23.7,30.10,West,260,7.0,7.0,35,0.00,,---,0.00,VWS V14.01,2013-02-16 22:58:00,
2013-02-16 17:03:00,50.0,24.1,30.10,NW,309,0.0,7.0,36,0.00,,---,0.00,VWS V14.01,2013-02-16 23:03:00,
2013-02-16 17:08:00,49.6,23.8,30.10,WNW,294,0.0,2.0,36,0.00,,---,0.00,VWS V14.01,2013-02-16 23:08:00,
2013-02-16 17:13:00,49.3,22.8,30.11,WNW,294,0.0,5.0,35,0.00,,---,0.00,VWS V14.01,2013-02-16 23:13:00,
2013-02-16 17:17:00,49.0,23.2,30.11,East,99,0.0,7.0,36,0.00,,---,0.00,VWS V14.01,2013-02-16 23:17:00,
2013-02-16 17:22:00,48.7,23.6,30.11,NW,307,0.0,7.0,37,0.00,,---,0.00,VWS V14.01,2013-02-16 23:22:00,
2013-02-16 17:27:00,48.3,24.5,30.11,NNE,20,0.0,7.0,39,0.00,,---,0.00,VWS V14.01,2013-02-16 23:27:00,
2013-02-16 17:32:00,47.9,24.1,30.11,North,355,0.0,7.0,39,0.00,,---,0.00,VWS V14.01,2013-02-16 23:32:00,
2013-02-16 17:37:00,47.4,24.9,30.11,NE,43,0.0,1.0,41,0.00,,---,0.00,VWS V14.01,2013-02-16 23:37:00,
2013-02-16 17:42:00,46.8,24.9,30.12,NW,321,0.0,3.0,42,0.00,,---,0.00,VWS V14.01,2013-02-16 23:42:00,
2013-02-16 17:47:00,46.5,25.2,30.12,East,91,0.0,3.0,43,0.00,,---,0.00,VWS V14.01,2013-02-16 23:47:00,
2013-02-16 17:52:00,46.1,23.7,30.12,NNE,30,0.0,3.0,41,0.00,,---,0.00,VWS V14.01,2013-02-16 23:52:00,
2013-02-16 17:57:00,45.9,24.7,30.12,NW,309,1.0,3.0,43,0.00,,---,0.00,VWS V14.01,2013-02-16 23:57:00,
2013-02-16 18:02:00,45.7,25.0,30.12,WNW,302,0.0,3.0,44,0.00,,---,0.00,VWS V14.01,2013-02-17 00:02:00,
2013-02-16 18:07:00,45.3,25.2,30.13,NW,310,0.0,0.0,45,0.00,,---,0.00,VWS V14.01,2013-02-17 00:07:00,
2013-02-16 18:12:00,45.0,25.0,30.13,North,1,0.0,0.0,45,0.00,,---,0.00,VWS V14.01,2013-02-17 00:12:00,
2013-02-16 18:17:00,44.7,24.7,30.13,NNW,333,0.0,0.0,45,0.00,,---,0.00,VWS V14.01,2013-02-17 00:17:00,
2013-02-16 18:22:00,44.4,24.9,30.13,NNW,335,0.0,0.0,46,0.00,,---,0.00,VWS V14.01,2013-02-17 00:22:00,
2013-02-16 18:27:00,44.0,25.1,30.14,East,95,0.0,2.0,47,0.00,,---,0.00,VWS V14.01,2013-02-17 00:27:00,
2013-02-16 18:32:00,43.7,24.8,30.14,NW,322,0.0,2.0,47,0.00,,---,0.00,VWS V14.01,2013-02-17 00:32:00,
2013-02-16 18:37:00,43.5,26.6,30.14,North,4,0.0,0.0,51,0.00,,---,0.00,VWS V14.01,2013-02-17 00:37:00,
2013-02-16 18:42:00,43.2,26.8,30.14,North,352,0.0,0.0,52,0.00,,---,0.00,VWS V14.01,2013-02-17 00:42:00,
2013-02-16 18:47:00,42.8,25.9,30.14,North,349,0.0,0.0,51,0.00,,---,0.00,VWS V14.01,2013-02-17 00:47:00,
2013-02-16 18:52:00,42.4,27.8,30.15,North,349,0.0,0.0,56,0.00,,---,0.00,VWS V14.01,2013-02-17 00:52:00,
2013-02-16 18:57:00,41.9,27.8,30.15,North,349,0.0,0.0,57,0.00,,---,0.00,VWS V14.01,2013-02-17 00:57:00,
2013-02-16 19:02:00,41.4,27.8,30.15,North,350,0.0,0.0,58,0.00,,---,0.00,VWS V14.01,2013-02-17 01:02:00,
2013-02-16 19:07:00,40.9,28.1,30.15,North,349,0.0,0.0,60,0.00,,---,0.00,VWS V14.01,2013-02-17 01:07:00,
2013-02-16 19:12:00,40.5,28.1,30.16,North,350,0.0,0.0,61,0.00,,---,0.00,VWS V14.01,2013-02-17 01:12:00,
2013-02-16 19:17:00,40.0,28.4,30.16,North,349,0.0,0.0,63,0.00,,---,0.00,VWS V14.01,2013-02-17 01:17:00,
2013-02-16 19:22:00,39.6,26.5,30.16,NNW,333,0.0,0.0,59,0.00,,---,0.00,VWS V14.01,2013-02-17 01:22:00,
2013-02-16 19:27:00,39.6,26.5,30.16,NNW,333,0.0,0.0,59,0.00,,---,0.00,VWS V14.01,2013-02-17 01:27:00,
2013-02-16 19:32:00,39.5,27.6,30.17,NNW,333,0.0,0.0,62,0.00,,---,0.00,VWS V14.01,2013-02-17 01:32:00,
2013-02-16 19:37:00,39.2,27.7,30.17,NNW,333,0.0,0.0,63,0.00,,---,0.00,VWS V14.01,2013-02-17 01:37:00,
2013-02-16 19:42:00,38.8,28.4,30.17,NNW,333,0.0,0.0,66,0.00,,---,0.00,VWS V14.01,2013-02-17 01:42:00,
2013-02-16 19:47:00,38.3,28.0,30.17,NNW,333,0.0,0.0,66,0.00,,---,0.00,VWS V14.01,2013-02-17 01:47:00,
2013-02-16 19:52:00,37.9,27.9,30.17,NNW,333,0.0,0.0,67,0.00,,---,0.00,VWS V14.01,2013-02-17 01:52:00,
2013-02-16 19:57:00,37.5,27.9,30.18,NNW,333,0.0,0.0,68,0.00,,---,0.00,VWS V14.01,2013-02-17 01:57:00,
2013-02-16 20:02:00,37.2,27.3,30.18,NNW,333,0.0,0.0,67,0.00,,---,0.00,VWS V14.01,2013-02-17 02:02:00,
2013-02-16 20:07:00,37.0,27.1,30.18,NNW,333,0.0,0.0,67,0.00,,---,0.00,VWS V14.01,2013-02-17 02:07:00,
2013-02-16 20:12:00,36.8,27.2,30.18,NNW,333,0.0,0.0,68,0.00,,---,0.00,VWS V14.01,2013-02-17 02:12:00,
2013-02-16 20:17:00,36.5,25.9,30.18,NNW,333,0.0,0.0,65,0.00,,---,0.00,VWS V14.01,2013-02-17 02:17:00,
2013-02-16 20:22:00,36.3,27.8,30.18,NNW,333,0.0,0.0,71,0.00,,---,0.00,VWS V14.01,2013-02-17 02:22:00,
2013-02-16 20:27:00,36.0,27.5,30.18,NNW,333,0.0,0.0,71,0.00,,---,0.00,VWS V14.01,2013-02-17 02:27:00,
2013-02-16 20:32:00,35.7,27.6,30.19,NNW,333,0.0,0.0,72,0.00,,---,0.00,VWS V14.01,2013-02-17 02:32:00,
2013-02-16 20:37:00,35.4,27.6,30.19,NNW,333,0.0,0.0,73,0.00,,---,0.00,VWS V14.01,2013-02-17 02:37:00,
2013-02-16 20:42:00,35.1,27.3,30.19,NNW,333,0.0,0.0,73,0.00,,---,0.00,VWS V14.01,2013-02-17 02:42:00,
2013-02-16 20:47:00,34.8,26.7,30.19,NNW,333,0.0,0.0,72,0.00,,---,0.00,VWS V14.01,2013-02-17 02:47:00,
2013-02-16 20:52:00,34.5,26.8,30.19,NNW,333,0.0,0.0,73,0.00,,---,0.00,VWS V14.01,2013-02-17 02:52:00,
2013-02-16 20:57:00,34.2,27.4,30.19,NNW,333,0.0,0.0,76,0.00,,---,0.00,VWS V14.01,2013-02-17 02:57:00,
2013-02-16 21:02:00,33.9,27.8,30.20,NNW,333,0.0,0.0,78,0.00,,---,0.00,VWS V14.01,2013-02-17 03:02:00,
2013-02-16 21:07:00,33.9,27.8,30.20,NNW,333,0.0,0.0,78,0.00,,---,0.00,VWS V14.01,2013-02-17 03:07:00,
2013-02-16 21:12:00,33.6,27.5,30.20,NNW,333,0.0,0.0,78,0.00,,---,0.00,VWS V14.01,2013-02-17 03:12:00,
2013-02-16 21:17:00,33.3,27.2,30.20,NNW,333,0.0,0.0,78,0.00,,---,0.00,VWS V14.01,2013-02-17 03:17:00,
2013-02-16 21:22:00,33.0,27.2,30.20,NNW,333,0.0,0.0,79,0.00,,---,0.00,VWS V14.01,2013-02-17 03:22:00,
2013-02-16 21:27:00,32.9,27.7,30.20,NNW,333,0.0,0.0,81,0.00,,---,0.00,VWS V14.01,2013-02-17 03:27:00,
2013-02-16 21:32:00,32.7,27.5,30.20,NNW,333,0.0,0.0,81,0.00,,---,0.00,VWS V14.01,2013-02-17 03:32:00,
2013-02-16 21:37:00,32.4,27.2,30.21,NNW,333,0.0,0.0,81,0.00,,---,0.00,VWS V14.01,2013-02-17 03:37:00,
2013-02-16 21:42:00,32.0,26.8,30.21,NNW,333,0.0,0.0,81,0.00,,---,0.00,VWS V14.01,2013-02-17 03:42:00,
2013-02-16 21:47:00,31.7,26.8,30.21,NNW,333,0.0,0.0,82,0.00,,---,0.00,VWS V14.01,2013-02-17 03:47:00,
2013-02-16 21:52:00,31.4,26.2,30.21,NNW,333,0.0,0.0,81,0.00,,---,0.00,VWS V14.01,2013-02-17 03:52:00,
2013-02-16 21:57:00,31.2,26.6,30.21,NNW,333,0.0,0.0,83,0.00,,---,0.00,VWS V14.01,2013-02-17 03:57:00,
2013-02-16 22:02:00,31.2,26.9,30.21,NNW,333,0.0,0.0,84,0.00,,---,0.00,VWS V14.01,2013-02-17 04:02:00,
2013-02-16 22:07:00,31.1,27.1,30.21,NNW,333,0.0,0.0,85,0.00,,---,0.00,VWS V14.01,2013-02-17 04:07:00,
2013-02-16 22:12:00,31.0,27.0,30.21,NNW,335,0.0,0.0,85,0.00,,---,0.00,VWS V14.01,2013-02-17 04:12:00,
2013-02-16 22:17:00,30.7,26.7,30.21,NNW,333,0.0,0.0,85,0.00,,---,0.00,VWS V14.01,2013-02-17 04:17:00,
2013-02-16 22:22:00,30.8,27.4,30.21,NNW,335,0.0,0.0,87,0.00,,---,0.00,VWS V14.01,2013-02-17 04:22:00,
2013-02-16 22:27:00,30.7,27.3,30.21,NNW,333,0.0,0.0,87,0.00,,---,0.00,VWS V14.01,2013-02-17 04:27:00,
2013-02-16 22:32:00,30.6,27.5,30.21,NNW,333,0.0,0.0,88,0.00,,---,0.00,VWS V14.01,2013-02-17 04:32:00,
2013-02-16 22:37:00,30.4,27.3,30.21,NNW,333,0.0,0.0,88,0.00,,---,0.00,VWS V14.01,2013-02-17 04:37:00,
2013-02-16 22:42:00,30.4,27.3,30.21,NNW,333,0.0,0.0,88,0.00,,---,0.00,VWS V14.01,2013-02-17 04:42:00,
2013-02-16 22:47:00,30.4,27.3,30.21,NNW,333,0.0,0.0,88,0.00,,---,0.00,VWS V14.01,2013-02-17 04:47:00,
2013-02-16 22:52:00,30.3,27.5,30.21,NNW,333,0.0,0.0,89,0.00,,---,0.00,VWS V14.01,2013-02-17 04:52:00,
2013-02-16 22:57:00,30.2,27.4,30.21,NNW,333,0.0,0.0,89,0.00,,---,0.00,VWS V14.01,2013-02-17 04:57:00,
2013-02-16 23:00:00,30.1,27.3,30.21,NNW,333,0.0,0.0,89,0.00,,---,0.00,VWS V14.01,2013-02-17 05:00:00,
2013-02-16 23:05:00,29.8,27.0,30.21,NNW,333,0.0,0.0,89,0.00,,---,0.00,VWS V14.01,2013-02-17 05:05:00,
2013-02-16 23:10:00,29.7,26.9,30.22,NNW,333,0.0,0.0,89,0.00,,---,0.00,VWS V14.01,2013-02-17 05:10:00,
2013-02-16 23:15:00,29.7,27.1,30.22,NNW,333,0.0,0.0,90,0.00,,---,0.00,VWS V14.01,2013-02-17 05:15:00,
2013-02-16 23:20:00,29.7,27.4,30.22,NNW,333,0.0,0.0,91,0.00,,---,0.00,VWS V14.01,2013-02-17 05:20:00,
2013-02-16 23:25:00,29.7,27.4,30.22,NNW,333,0.0,0.0,91,0.00,,---,0.00,VWS V14.01,2013-02-17 05:25:00,
2013-02-16 23:30:00,29.7,27.4,30.22,NNW,333,0.0,0.0,91,0.00,,---,0.00,VWS V14.01,2013-02-17 05:30:00,
2013-02-16 23:35:00,29.7,27.4,30.22,NNW,333,0.0,0.0,91,0.00,,---,0.00,VWS V14.01,2013-02-17 05:35:00,
2013-02-16 23:40:00,29.6,27.3,30.22,NNW,333,0.0,0.0,91,0.00,,---,0.00,VWS V14.01,2013-02-17 05:40:00,
2013-02-16 23:45:00,29.4,27.1,30.23,NNW,333,0.0,0.0,91,0.00,,---,0.00,VWS V14.01,2013-02-17 05:45:00,
2013-02-16 23:50:00,29.4,27.4,30.22,NNW,333,0.0,0.0,92,0.00,,---,0.00,VWS V14.01,2013-02-17 05:50:00,
2013-02-16 23:55:00,29.4,27.4,30.22,NNW,335,0.0,0.0,92,0.00,,---,0.00,VWS V14.01,2013-02-17 05:55:00,